Regional Weather Roundup
Issued by NWS

Home | Current Version | Previous Version | Text Only | Print | Product List | Glossary Off
Versions: 1 2 3 4 5 6 7 8 9 10 11 12 13 14 15 16 17 18 19 20 21 22 23 24 25 26 27 28 29 30 31 32 33 34 35 36 37 38 39 40 41 42 43 44 45 46 47 48 49 50

915
ASUS43 KLMK 180310
RWRKY
KENTUCKY REGIONAL WEATHER ROUNDUP
NATIONAL WEATHER SERVICE LOUISVILLE KY
1000 PM EST SAT FEB 17 2018

NOTE "FAIR" INDICATES FEW OR NO CLOUDS BELOW 12,000 FEET
WITH NO SIGNIFICANT WEATHER AND/OR OBSTRUCTIONS TO VISIBILITY.

KYZ001>023-026-027-061>063-070>075-180400-
WESTERN AND SOUTH CENTRAL KENTUCKY

CITY           SKY/WX    TMP DP  RH WIND       PRES   REMARKS
PADUCAH        FAIR      38  35  89 SW6       30.23  WCI  33
HENDERSON      FAIR      40  35  83 NW7       30.23R
OWENSBORO      CLOUDY    43  37  81 NW12      30.23R
HOPKINSVILLE   FAIR      42  40  92 NW6       30.22R
BOWLING GREEN  CLOUDY    45  42  89 W9G18     30.22R
GLASGOW        CLOUDY   N/A N/A N/A W8        30.21R
$$

KYZ024-025-028>034-038-045-046-053-180400-
NORTH CENTRAL KENTUCKY

CITY           SKY/WX    TMP DP  RH WIND       PRES   REMARKS
LOUISVILLE/SDF DRIZZLE   41  38  89 W15       30.18R
LOUISVILLE/LOU CLOUDY    40  38  93 W15G24    30.19R WCI  32
FORT KNOX      CLOUDY    41  39  93 W13G24    30.19R
$$

KYZ035>037-039>044-047>052-055>060-089>105-180400-
NORTHEAST KENTUCKY

CITY           SKY/WX    TMP DP  RH WIND       PRES   REMARKS
LEXINGTON      CLOUDY    41  37  86 SW13      30.14R FOG
COVINGTON      DRIZZLE   35  35 100 W15       30.10R WCI  25
FRANKFORT      CLOUDY    40  36  86 W8G21     30.14R WCI  34
$$

KYZ054-064>069-076>088-106>120-180400-
SOUTHEAST KENTUCKY

CITY           SKY/WX    TMP DP  RH WIND       PRES   REMARKS
JACKSON        CLOUDY    42  41  96 SW6       30.12R
LONDON         CLOUDY    45  42  89 W9G20     30.16R
SOMERSET       CLOUDY    43  43 100 W10       30.20R
MIDDLESBORO    CLOUDY    48  47  96 W3        30.16R
MONTICELLO     NOT AVBL
$$





USA.gov is the U.S. government's official web portal to all federal, state and local government web resources and services.